sat.trackr.live / text

‹ back to catalog

STARLINK-5726

NORAD 55608 · 2023-020AR

PAYLOAD ACTIVE UNKNOWN

§ Identity

Operator
Country
US
Launch date
2023-02-12
Launch site
AFETR
Launch vehicle
Mass (kg)
RCS (m²)

Purposes: comms

External: N2YO · Heavens-Above · Gunter

§ Orbital elements

Epoch: 2026-09-20T21:49:26.279616Z

Period
94.27 min
Inclination
43.0051°
Eccentricity
0.0001698
Mean motion
15.27587361 rev/d
Perigee alt
481.9 km
Apogee alt
484.2 km
Semi-major
6,861.2 km
B*
4.3166e-5
RAAN
331.8997°
Arg perigee
299.3766°
Mean anomaly
60.6916°
Rev number
19,889

§ Raw data

STARLINK-57261 55608U 23020AR  26263.90933194  .00000926  00000+0  43166-4 0  99982 55608  43.0051 331.8997 0001698 299.3766  60.6916 15.27587361198893

JSON: /api/v1/satellites/55608 · /tle

For live sub-satellite position, see the globe view (requires WebGL).

§ Visibility from observer

Set your observer location to see the next 7 days of passes ≥ 10°. The values pass through the URL so the page stays shareable.

No JS? Fill the form by hand. The geolocation button needs JavaScript.